FW3030 Weather Reports


Display with metric or nautical units.
time (UTC)temp
F
wind
direction
speed
MPH
gust
MPH
rain 1hr
in
rain 24hr
in
rain mn
in
humidity
%
barometer
mb
20260509060101 50 258 2.0 4.0 0.00 0.00 0.00 49 1002.7
20260509054603 50 0 0.0 2.0 0.00 0.00 0.00 48 1002.4
20260509053107 50 0 0.0 1.0 0.00 0.00 0.00 48 1002.2
20260509051559 50 0 0.0 1.0 0.00 0.00 0.00 48 1002.1
20260509050100 50 0 0.0 2.0 0.00 0.00 0.00 46 1002.1
20260509044559 50 0 0.0 1.0 0.00 0.00 0.00 46 1002.3
20260509043103 51 0 0.0 1.0 0.00 0.00 0.00 43 1002.6
20260509041619 52 0 0.0 3.0 0.00 0.00 0.00 43 1002.5
20260509040100 53 0 0.0 1.0 0.00 0.00 0.00 40 1002.8
20260509034600 54 0 0.0 1.0 0.00 0.00 0.00 38 1003.1
20260509033100 55 0 0.0 0.0 0.00 0.00 0.00 36 1003.1
20260509031559 56 0 0.0 0.0 0.00 0.00 0.00 34 1003.2
20260509030059 57 0 0.0 1.0 0.00 0.00 0.00 33 1003.3
20260509024606 57 0 0.0 4.0 0.00 0.00 0.00 33 1003.3
20260509023114 58 274 1.0 4.0 0.00 0.00 0.00 32 1003.2
20260509021612 58 276 1.0 7.0 0.00 0.00 0.00 31 1003.1
20260509020101 59 259 3.0 8.0 0.00 0.00 0.00 30 1003.0
20260509014600 60 254 3.0 9.0 0.00 0.00 0.00 29 1003.1
20260509013102 61 26 3.0 11.0 0.00 0.00 0.00 29 1002.9
20260509011605 62 302 4.0 12.0 0.00 0.00 0.00 29 1002.7
20260509010103 63 285 4.0 12.0 0.00 0.00 0.00 28 1002.6
20260509004558 64 281 3.0 18.0 0.00 0.00 0.00 30 1002.3
20260509003102 66 360 5.0 17.0 0.00 0.00 0.00 29 1002.0
20260509001601 67 338 5.0 16.0 0.00 0.00 0.00 28 1001.9
20260509000120 68 277 8.0 17.0 0.00 0.00 0.00 27 1001.8
20260508234600 69 355 6.0 16.0 0.00 0.00 0.00 25 1001.6
20260508233128 69 259 4.0 13.0 0.00 0.00 0.00 24 1001.6
20260508231559 70 317 4.0 15.0 0.00 0.00 0.00 23 1001.6
20260508230105 71 258 4.0 14.0 0.00 0.00 0.00 22 1001.6
20260508224559 71 219 5.0 13.0 0.00 0.00 0.00 23 1001.5
20260508223105 72 298 6.0 12.0 0.00 0.00 0.00 22 1001.5
20260508221610 71 259 6.0 19.0 0.00 0.00 0.00 21 1001.5
20260508220106 72 296 5.0 14.0 0.00 0.00 0.00 22 1001.5
20260508214559 72 251 4.0 14.0 0.00 0.00 0.00 22 1001.5
20260508213100 72 291 4.0 12.0 0.00 0.00 0.00 22 1001.6
20260508211604 72 302 3.0 10.0 0.00 0.00 0.00 24 1001.8
20260508210109 72 286 6.0 16.0 0.00 0.00 0.00 22 1001.9
20260508204602 72 302 3.0 11.0 0.00 0.00 0.00 24 1002.2
20260508203110 71 260 4.0 12.0 0.00 0.00 0.00 24 1002.4
20260508201558 69 275 4.0 12.0 0.00 0.00 0.00 24 1002.7
20260508200116 70 265 3.0 15.0 0.00 0.00 0.00 26 1002.8
20260508194558 70 318 3.0 16.0 0.00 0.00 0.00 24 1003.0
20260508193150 70 242 6.0 12.0 0.00 0.00 0.00 24 1003.2
20260508191603 69 267 4.0 12.0 0.00 0.00 0.00 23 1003.4
20260508190056 71 281 4.0 14.0 0.00 0.00 0.00 22 1003.7
20260508184606 70 286 1.0 9.0 0.00 0.00 0.00 24 1004.0
20260508183124 69 269 2.0 9.0 0.00 0.00 0.00 26 1004.1
20260508181606 68 339 5.0 10.0 0.00 0.00 0.00 26 1004.4
20260508180057 67 259 2.0 7.0 0.00 0.00 0.00 26 1004.6
20260508174603 66 325 2.0 11.0 0.00 0.00 0.00 30 1005.0
20260508173056 66 257 4.0 15.0 0.00 0.00 0.00 27 1005.2
20260508171558 66 0 0.0 7.0 0.00 0.00 0.00 27 1005.4
20260508170101 65 0 1.0 10.0 0.00 0.00 0.00 28 1005.6
20260508164559 64 320 2.0 10.0 0.00 0.00 0.00 29 1005.7
20260508163059 63 267 3.0 10.0 0.00 0.00 0.00 30 1005.8
20260508161557 62 254 3.0 8.0 0.00 0.00 0.00 32 1005.9
20260508160057 60 279 2.0 7.0 0.00 0.00 0.00 35 1006.1
20260508154623 58 303 1.0 6.0 0.00 0.00 0.00 39 1006.1
20260508153101 57 272 3.0 7.0 0.00 0.00 0.00 39 1006.4
20260508151605 56 258 3.0 7.0 0.00 0.00 0.00 42 1006.5
20260508150056 54 255 2.0 7.0 0.00 0.00 0.00 43 1006.8
20260508144609 53 326 2.0 7.0 0.00 0.00 0.00 45 1006.9
20260508143105 52 271 2.0 8.0 0.00 0.00 0.00 48 1006.9
20260508141606 50 327 1.0 4.0 0.00 0.00 0.00 51 1007.0
20260508140057 49 255 2.0 9.0 0.00 0.00 0.00 53 1006.6
20260508134624 47 142 2.0 6.0 0.00 0.00 0.00 60 1006.8
20260508133102 44 173 2.0 5.0 0.00 0.00 0.00 65 1007.0
20260508131608 42 0 0.0 4.0 0.00 0.00 0.00 72 1007.2
20260508130058 40 0 1.0 4.0 0.00 0.00 0.00 80 1007.2
20260508124602 39 234 0.0 2.0 0.00 0.00 0.00 83 1007.4
20260508123057 38 0 0.0 2.0 0.00 0.00 0.00 83 1007.5
20260508121557 36 0 0.0 0.0 0.00 0.00 0.00 80 1007.5
20260508120100 36 0 0.0 0.0 0.00 0.00 0.00 79 1007.4
20260508114603 35 0 0.0 0.0 0.00 0.00 0.00 78 1007.3
20260508113107 35 0 0.0 0.0 0.00 0.00 0.00 78 1007.2
20260508111557 35 0 0.0 0.0 0.00 0.00 0.00 77 1007.1
20260508110114 35 0 0.0 0.0 0.00 0.00 0.00 76 1007.1
20260508104559 35 0 0.0 0.0 0.00 0.00 0.00 76 1007.2
20260508103100 35 0 0.0 0.0 0.00 0.00 0.00 75 1007.3
20260508101600 36 0 0.0 0.0 0.00 0.00 0.00 73 1007.3
20260508100112 36 0 0.0 0.0 0.00 0.00 0.00 72 1007.5
20260508094606 36 0 0.0 0.0 0.00 0.00 0.00 72 1007.5
20260508093059 36 0 0.0 0.0 0.00 0.00 0.00 72 1007.5
20260508091605 37 0 0.0 0.0 0.00 0.00 0.00 70 1007.6
20260508090114 37 0 0.0 0.0 0.00 0.00 0.00 70 1007.7
20260508084558 37 0 0.0 0.0 0.00 0.00 0.00 69 1007.6
20260508083059 38 0 0.0 1.0 0.00 0.00 0.00 69 1007.6
20260508081606 38 0 0.0 1.0 0.00 0.00 0.00 66 1007.6
20260508080058 38 0 0.0 0.0 0.00 0.00 0.00 64 1007.8
20260508074600 39 0 0.0 2.0 0.00 0.00 0.00 64 1007.8
20260508073112 39 0 0.0 1.0 0.00 0.00 0.00 62 1007.7
20260508071605 40 0 0.0 0.0 0.00 0.00 0.00 61 1007.6
20260508070058 40 0 0.0 0.0 0.00 0.00 0.00 61 1007.7
20260508064620 40 0 0.0 0.0 0.00 0.00 0.00 60 1007.9
20260508063112 41 0 0.0 2.0 0.00 0.00 0.00 59 1008.0
20260508061609 41 0 0.0 0.0 0.00 0.00 0.00 57 1008.1